Austin Bergstrom, TX

3:53 PM CDT on October 17, 2017 (GMT -0500)
Austin Bergstrom International

Weather History for KAUS - February, 2014

Change the Weather History Date:

Tuesday, February 18, 2014

  Actual Average Record
Temperature  
Mean Temperature 66 °F 53 °F  
Max Temperature 80 °F 65 °F 89 °F (1986)
Min Temperature 51 °F 40 °F 25 °F (2007)
Degree Days  
Heating Degree Days 0 13  
Month to date heating degree days 288 255  
Since 1 July heating degree days 1731 1497  
Cooling Degree Days 1 0  
Month to date cooling degree days 1 0  
Year to date cooling degree days 2 5  
Growing Degree Days 18 (Base 50)    
Moisture  
Dew Point 54 °F    
Average Humidity 63    
Maximum Humidity 87    
Minimum Humidity 39    
Precipitation  
Precipitation T in 0.09 in 2.01 in (1963)
Month to date precipitation 0.23 1.46  
Year to date precipitation 0.80 3.66  
Snow  
Snow 0.00 in - - ()
Month to date snowfall T  
Since 1 July snowfall T  
Snow Depth 0.00 in    
Sea Level Pressure  
Sea Level Pressure 29.99 in    
Wind  
Wind Speed 6 mph (South)    
Max Wind Speed 18 mph    
Max Gust Speed 24 mph    
Visibility 10 miles    
Events      
T = Trace of Precipitation, MM = Missing Value Source: NWS Daily Summary

Daily Weather History Graph

Daily Weather History Graph

Search for Another Location

Airport or City:

Trip Planner

Search our weather history database for the weather conditions in past years. The results will help you decide how hot, cold, wet, or windy it might be!

Date:

Astronomy

Feb. 18, 2014 Rise Set
Actual Time 7:07 AM CST 6:21 PM CST
Civil Twilight 6:43 AM CST 6:46 PM CST
Nautical Twilight 6:15 AM CST 7:14 PM CST
Astronomical Twilight 5:47 AM CST 7:41 PM CST
Moon 9:56 PM CST (2/18) 8:58 AM CST (2/18)
Length of Visible Light 12h 02m
Length of Day
11h 13m
Waning Gibbous, 87% of the Moon is Illuminated
Feb 18
Waning Gibbous
Feb 22
Last Quarter
Mar 1
New
Mar 8
First Quarter
Mar 16
Full

Hourly Weather History & Observations

Time (CST) Temp. Dew Point Humidity Pressure Visibility Wind Dir Wind Speed Gust Speed Precip Events Conditions
12:53 AM 60.1 °F 36.0 °F 41% 30.10 in 10.0 mi North 4.6 mph - N/A   Overcast
1:53 AM 60.1 °F 36.0 °F 41% 30.08 in 10.0 mi North 3.5 mph - N/A   Mostly Cloudy
2:53 AM 57.9 °F 39.0 °F 49% 30.06 in 10.0 mi Calm Calm - N/A   Overcast
3:53 AM 53.1 °F 41.0 °F 64% 30.04 in 10.0 mi Calm Calm - N/A   Scattered Clouds
4:53 AM 55.0 °F 43.0 °F 64% 30.04 in 10.0 mi Calm Calm - N/A   Overcast
5:27 AM 57.2 °F 44.6 °F 63% 30.05 in 10.0 mi Calm Calm - 0.00 in   Overcast
5:53 AM 57.0 °F 45.0 °F 64% 30.03 in 10.0 mi Calm Calm - 0.00 in   Overcast
6:16 AM 57.2 °F 44.6 °F 63% 30.04 in 10.0 mi Calm Calm - N/A   Overcast
6:53 AM 57.9 °F 43.0 °F 58% 30.04 in 10.0 mi Calm Calm - N/A   Overcast
7:53 AM 59.0 °F 42.1 °F 53% 30.04 in 10.0 mi WNW 3.5 mph - N/A   Overcast
8:53 AM 60.1 °F 51.1 °F 72% 30.05 in 10.0 mi Calm Calm - N/A   Overcast
9:01 AM 60.8 °F 53.6 °F 77% 30.06 in 10.0 mi Calm Calm - N/A   Overcast
9:53 AM 62.1 °F 57.0 °F 84% 30.07 in 6.0 mi Calm Calm - N/A   Haze
10:53 AM 64.0 °F 59.0 °F 84% 30.07 in 6.0 mi Calm Calm - N/A   Haze
11:18 AM 66.2 °F 60.8 °F 83% 30.05 in 6.0 mi Calm Calm - N/A   Haze
11:53 AM 71.1 °F 62.1 °F 73% 30.01 in 8.0 mi South 8.1 mph - N/A   Mostly Cloudy
12:53 PM 77.0 °F 62.1 °F 60% 29.96 in 10.0 mi South 16.1 mph - N/A   Mostly Cloudy
1:28 PM 77.0 °F 60.8 °F 57% 29.96 in 10.0 mi South 12.7 mph 21.9 mph N/A   Mostly Cloudy
1:53 PM 77.0 °F 60.1 °F 56% 29.93 in 10.0 mi South 13.8 mph - N/A   Mostly Cloudy
2:53 PM 79.0 °F 61.0 °F 54% 29.91 in 10.0 mi South 13.8 mph - N/A   Mostly Cloudy
3:53 PM 77.0 °F 61.0 °F 58% 29.91 in 10.0 mi South 10.4 mph - N/A   Mostly Cloudy
4:53 PM 77.0 °F 61.0 °F 58% 29.90 in 10.0 mi SSW 12.7 mph - N/A   Partly Cloudy
5:53 PM 75.0 °F 61.0 °F 62% 29.89 in 10.0 mi South 11.5 mph - N/A   Scattered Clouds
6:53 PM 66.9 °F 60.1 °F 79% 29.90 in 10.0 mi South 3.5 mph - N/A   Partly Cloudy
7:53 PM 64.0 °F 59.0 °F 84% 29.91 in 9.0 mi South 6.9 mph - N/A   Partly Cloudy
8:53 PM 66.0 °F 61.0 °F 84% 29.92 in 10.0 mi South 8.1 mph - N/A   Partly Cloudy
9:53 PM 64.0 °F 61.0 °F 90% 29.93 in 9.0 mi South 5.8 mph - N/A   Partly Cloudy
10:53 PM 64.9 °F 61.0 °F 87% 29.94 in 10.0 mi South 5.8 mph - N/A   Mostly Cloudy
11:17 PM 64.4 °F 60.8 °F 88% 29.96 in 10.0 mi South 5.8 mph - N/A   Mostly Cloudy
11:43 PM 62.6 °F 59.0 °F 88% 29.95 in 10.0 mi South 6.9 mph - N/A   Scattered Clouds
11:53 PM 62.1 °F 60.1 °F 93% 29.94 in 10.0 mi South 6.9 mph - N/A   Partly Cloudy